FENGYUN 1C DEB

基本信息
目录编号:
30082
目录名称:
FENGYUN 1C DEB
国际标识:
1999-025QK
轨道中心:
EARTH
物体状态:
在轨
发射日期:
1999-05-10 UTC
轨道信息
数据来源: 国际轨道数据
星历时间: 2026-09-03T12:01:33+0800
半长轴: 6843.06km
偏心率: 0.0045867
轨道倾角: 98.836°
近地点辐角: 354.567°
升交点赤经: 225.735°
平近点角: 5.507°
近地点: 433.535km
远地点: 496.311km
周期: 93.893分钟
每日圈数: 15.336538
详细信息
发射场:
TSC
轨道高度:
LEO
数据来源:
AOE Integration Group
参考系:
TEME
时间系统:
UTC
历元类型:
SGP4
2D轨道图
3D轨道图
轨道高度分析图
轨道倾角分析图
轨道综合分析图
查看轨道综合分析图